[[{"header":{"parameterUnit":"m.s-1","parameterCategory":1,"la1":30.2991,"la2":30.254,"lo1":-89.0895,"lo2":-89.0444,"dy":0.0017,"dx":0.0017,"nx":28,"ny":28,"refTime":"2023-09-06T09:00:00:Z","depth":0,"parameterNumber":2,"parameterNumberName":"U-component_of_WINDS"},"data":[0,0,0,0,0,0,0,0,0,0,0,0,0,0,0,0,0,0,0,0,0,0,0,0,0,0,0,0,0,0,0,0,0,0,0,0,0,0,0,0,0,0,0,0,0,0,0,0,0,0,0,0,0,0,0,0,0,0,3.6883,3.6885,0,3.7025,3.7026,3.7028,3.6994,3.6992,3.6989,3.6986,3.7133,3.7139,3.7146,0,0,0,0,0,0,0,0,0,0,0,0,0,3.6584,3.6589,3.6883,3.6885,3.6886,3.7025,3.7026,3.7028,3.6995,3.6991,3.6988,3.6985,3.7131,3.7139,3.7146,0,0,0,0,0,0,0,0,0,0,0,0,0,3.6718,3.6591,3.6883,3.6886,3.6888,3.7024,3.7027,3.7029,3.6996,3.6991,3.6987,3.6983,3.7128,3.7138,3.7147,3.7289,0,0,3.7177,3.7181,0,0,0,0,0,0,0,0,3.6711,3.6729,3.6884,3.6886,3.6888,3.6988,3.6975,3.7116,3.6997,3.6955,3.6986,3.6981,3.7088,3.7101,3.7137,3.7296,3.7302,3.7178,3.7184,3.7188,3.7191,0,0,0,0,0,0,0,3.6701,3.6723,3.6939,3.6886,3.6889,3.6881,3.6896,3.7001,3.7043,3.6958,3.6956,3.6973,3.7089,3.7127,3.714,3.7304,3.7178,3.7186,3.7192,3.7196,3.7586,3.759,0,0,0,0,0,0,3.669,3.6715,3.6935,3.6943,3.6788,3.689,3.6906,3.696,3.7041,3.705,3.6976,3.6971,3.7113,3.7128,3.7145,3.7315,3.7188,3.7197,3.7202,3.7581,3.7587,3.7592,0,0,0,0,0,0,3.6684,3.671,3.6929,3.6829,3.6856,3.6899,3.696,3.6965,3.7003,3.7055,3.7063,3.7008,3.711,3.7131,3.7253,3.7319,3.7201,3.721,3.7576,3.7583,3.7589,3.7656,0,0,0,0,0,0,3.6675,3.6708,3.6762,3.683,3.6862,3.7035,3.6964,3.6971,3.702,3.7014,3.7087,3.7095,3.7109,3.7239,3.7263,3.733,3.7218,3.757,3.7579,3.7587,3.7648,3.7665,3.7678,0,0,0,0,0,3.6665,3.6776,3.6765,3.6792,3.693,3.7039,3.7056,3.7069,3.7026,3.708,3.7113,3.7093,3.7308,3.7251,3.7278,3.735,3.7566,3.7577,3.7586,3.7642,3.7661,3.7678,0,0,0,0,0,0,3.6715,3.6785,3.6774,3.691,3.6969,3.7033,3.7102,3.709,3.7162,3.7154,3.7167,3.7183,3.7307,3.7341,3.7276,3.7491,3.7431,3.7447,3.7464,3.7483,3.7498,3.7487,3.7226,0,0,0,0,0,3.6742,3.6824,3.6881,3.6996,3.7025,3.7059,3.7107,3.7111,3.7172,3.7197,3.7239,3.73,3.7381,3.7434,3.7512,3.7653,3.7668,3.7716,3.7731,3.7743,3.7756,3.7832,3.7854,3.7625,3.7625,3.7625,0,0,3.6798,3.6847,3.6898,3.7007,3.7053,3.7137,3.708,3.7172,3.7235,3.7211,3.7328,3.7361,3.743,3.7562,3.7622,3.7594,3.7823,3.7756,3.7765,3.7772,3.7845,3.7867,3.7886,3.7632,3.7631,3.763,0,0,3.6944,3.699,3.7089,3.7136,3.7206,3.7227,3.7251,3.7317,3.7338,3.7456,3.7439,3.7515,3.7654,3.7703,3.7747,3.791,3.7894,3.7935,3.8013,3.8087,3.8105,3.8121,3.8178,3.8199,3.7949,3.7949,3.7949,0,3.7006,3.7132,3.7143,3.7236,3.7284,3.7266,3.7367,3.7412,3.7504,3.7538,3.7504,3.7679,3.7724,3.7866,3.7906,3.7942,3.7969,3.7926,3.8102,3.8118,3.8133,3.8188,3.8209,3.7953,3.7953,3.7952,3.7952,0,3.7203,3.7291,3.7363,3.7451,3.7508,3.7605,3.763,3.7686,3.7685,3.771,3.783,3.7883,3.797,3.8005,3.8006,3.8148,3.8127,3.8098,3.8038,3.8159,3.821,3.8232,3.796,3.7958,3.7957,3.7956,0,0,3.7384,3.7476,3.7503,3.7542,3.7617,3.7685,3.7781,3.7866,3.7913,3.7977,3.8057,3.8175,3.8148,3.8197,3.8204,3.8269,3.8393,3.8232,3.8233,3.8258,3.8551,3.8571,3.8595,3.8383,3.8387,3.8391,3.8545,0,3.7535,3.7703,3.7716,3.7867,3.7948,3.7932,3.8015,3.807,3.8096,3.8168,3.8197,3.828,3.8239,3.8268,3.8332,3.8365,3.8452,3.8354,3.8457,3.8461,3.8439,3.8622,3.8645,3.8787,3.8565,3.8568,3.8571,0,3.7734,3.7803,3.7962,3.8025,3.8059,3.8134,3.8212,3.8281,3.8343,3.8357,3.8412,3.8409,3.8507,3.8445,3.858,3.8513,3.8556,3.8578,3.8584,3.8593,3.8522,3.8635,3.8833,3.8854,3.8603,3.86,3.8598,0,3.7848,3.7981,3.8093,3.8127,3.8204,3.8256,3.829,3.8348,3.8398,3.8467,3.8499,3.8579,3.8622,3.8684,3.8702,3.8655,3.8836,3.8776,3.885,3.885,3.8888,3.8885,3.9095,3.8919,3.8918,3.8918,3.8917,0,3.8015,3.8113,3.8145,3.8214,3.8322,3.8336,3.8443,3.8474,3.8526,3.86,3.8592,3.8662,3.8683,3.8757,3.8773,3.8881,3.8902,3.8915,3.8918,3.8915,3.8913,3.8943,3.8933,3.8923,3.8922,3.8921,3.892,0,3.8161,3.8186,3.8307,3.8369,3.8387,3.8464,3.8517,3.8583,3.8607,3.8702,3.8725,3.8763,3.8849,3.8874,3.8979,3.8989,3.9116,3.911,3.9094,3.9094,3.9167,3.9159,3.9401,3.9433,3.9237,3.9239,3.9241,0,3.8265,3.8339,3.8409,3.8457,3.8494,3.8573,3.8623,3.8639,3.8692,3.8768,3.8825,3.891,3.8978,3.9117,3.9155,3.9234,3.9229,3.9309,3.9241,3.9236,3.9229,3.9223,3.923,3.9321,3.9323,3.9325,3.9326,0,3.8446,3.8455,3.8527,3.8604,3.8664,3.8726,3.8785,3.8826,3.885,3.891,3.8997,3.9051,3.9156,3.9241,3.9321,3.9357,3.9346,3.9347,3.9369,3.9366,3.9353,3.9359,3.9128,3.9342,3.934,3.9339,3.9338,3.9338,3.8573,3.8638,3.8696,3.8777,3.8823,3.8878,3.8943,3.8975,3.9048,3.9134,3.914,3.9234,3.9294,3.94,3.944,3.9515,3.9491,3.9522,3.953,3.9537,3.9542,3.9342,3.953,3.9529,3.9529,3.9529,3.9528,0,3.8752,3.8789,3.8863,3.8945,3.9009,3.8993,3.9057,3.9111,3.9194,3.9251,3.9318,3.9418,3.95,3.9543,3.9624,3.9675,3.9672,3.9696,3.9692,3.97,3.9559,3.9532,3.9697,3.9697,3.9697,3.9697,3.9697,3.9697,3.8853,3.8961,3.8977,3.9108,3.9144,3.9236,3.9274,3.9324,3.9369,3.9481,3.9548,3.9576,3.9627,3.9711,3.9785,3.9796,3.9825,3.9852,3.9859,3.9727,3.971,3.9693,3.9668,3.9858,3.9859,3.9993,3.9995,3.9996]},{"header":{"parameterUnit":"m.s-1","parameterCategory":1,"la1":30.2991,"la2":30.254,"lo1":-89.0895,"lo2":-89.0444,"dy":0.0017,"dx":0.0017,"nx":28,"ny":28,"refTime":"2023-09-06T09:00:00:Z","depth":0,"parameterNumber":3,"parameterNumberName":"V-component_of_WINDS"},"data":[0,0,0,0,0,0,0,0,0,0,0,0,0,0,0,0,0,0,0,0,0,0,0,0,0,0,0,0,0,0,0,0,0,0,0,0,0,0,0,0,0,0,0,0,0,0,0,0,0,0,0,0,0,0,0,0,0,0,0.7668,0.7668,0,0.7676,0.7676,0.7676,0.7638,0.7636,0.7635,0.7634,0.7644,0.7645,0.7646,0,0,0,0,0,0,0,0,0,0,0,0,0,0.7619,0.762,0.7668,0.7668,0.7668,0.7676,0.7676,0.7676,0.7638,0.7636,0.7635,0.7634,0.7643,0.7645,0.7646,0,0,0,0,0,0,0,0,0,0,0,0,0,0.7635,0.7621,0.7668,0.765,0.7648,0.7676,0.7676,0.7676,0.7638,0.7636,0.7635,0.7633,0.7643,0.7645,0.7646,0.7692,0,0,0.7652,0.7653,0,0,0,0,0,0,0,0,0.7634,0.7637,0.7652,0.7651,0.7649,0.7654,0.7662,0.7682,0.7639,0.7642,0.7634,0.7632,0.7649,0.765,0.7655,0.7693,0.7693,0.7653,0.7654,0.7655,0.7655,0,0,0,0,0,0,0,0.7633,0.7636,0.7671,0.7653,0.7651,0.7641,0.7642,0.7666,0.7655,0.7642,0.7639,0.764,0.7647,0.7653,0.7655,0.7693,0.7653,0.7654,0.7655,0.7656,0.7768,0.777,0,0,0,0,0,0,0.7635,0.7636,0.7671,0.7671,0.7638,0.7644,0.7644,0.7654,0.7654,0.7653,0.7642,0.7638,0.7651,0.7653,0.7655,0.7709,0.7655,0.7656,0.7657,0.7766,0.7768,0.777,0,0,0,0,0,0,0.7634,0.7638,0.767,0.7653,0.7656,0.7646,0.7658,0.7655,0.7661,0.7654,0.7652,0.765,0.765,0.7652,0.7683,0.7708,0.7657,0.7659,0.7764,0.7767,0.7769,0.7816,0,0,0,0,0,0,0.7632,0.7638,0.7655,0.7653,0.7657,0.7698,0.766,0.7657,0.7665,0.766,0.7661,0.766,0.7649,0.768,0.7685,0.771,0.7661,0.7762,0.7765,0.7768,0.7812,0.782,0.7827,0,0,0,0,0,0.7631,0.7668,0.7656,0.7661,0.7679,0.77,0.7702,0.7688,0.7667,0.7684,0.7679,0.766,0.7705,0.7684,0.7689,0.7715,0.776,0.7764,0.7768,0.7809,0.7818,0.7826,0,0,0,0,0,0,0.7674,0.7668,0.7654,0.7693,0.7697,0.7693,0.7715,0.7699,0.7709,0.7705,0.7687,0.7688,0.7721,0.7721,0.7698,0.7759,0.7729,0.7734,0.7758,0.7767,0.7774,0.7774,0.7662,0,0,0,0,0,0.7688,0.7705,0.7699,0.7733,0.7736,0.7725,0.7734,0.7722,0.7726,0.7728,0.7726,0.7731,0.7746,0.7756,0.777,0.7811,0.7811,0.7832,0.7839,0.7845,0.785,0.7872,0.7881,0.7783,0.7783,0.7783,0,0,0.7717,0.7716,0.7728,0.7742,0.7744,0.7763,0.7727,0.7748,0.7762,0.7732,0.776,0.7759,0.7763,0.7799,0.7815,0.78,0.7876,0.785,0.7855,0.7857,0.7877,0.7886,0.7894,0.7786,0.7786,0.7785,0,0,0.7779,0.778,0.7809,0.7811,0.7815,0.7807,0.7814,0.7812,0.781,0.7838,0.7816,0.7831,0.7858,0.7862,0.7867,0.793,0.7912,0.7935,0.7973,0.7994,0.8002,0.8009,0.8031,0.804,0.794,0.794,0.794,0,0.7815,0.7842,0.7825,0.7848,0.7855,0.7827,0.7856,0.7859,0.7867,0.7873,0.7855,0.7887,0.7888,0.7925,0.794,0.7945,0.7953,0.7935,0.8002,0.8009,0.8015,0.8036,0.8045,0.7942,0.7942,0.7942,0.7942,0,0.7886,0.7905,0.7928,0.7936,0.7945,0.7971,0.7957,0.7969,0.7956,0.795,0.7979,0.7979,0.7992,0.7999,0.7988,0.8035,0.8025,0.8005,0.7975,0.8027,0.8047,0.8055,0.7946,0.7945,0.7944,0.7944,0,0,0.7978,0.7975,0.7983,0.7986,0.7987,0.8002,0.8026,0.8038,0.8048,0.8054,0.8074,0.8096,0.8078,0.8084,0.8072,0.8091,0.8141,0.8069,0.8069,0.8083,0.8193,0.8208,0.8218,0.8129,0.813,0.8131,0.8192,0,0.8039,0.808,0.8065,0.8107,0.8125,0.8098,0.8119,0.8122,0.8117,0.8131,0.8125,0.8141,0.8115,0.8119,0.8136,0.8131,0.8163,0.8127,0.8148,0.8149,0.8148,0.8228,0.8245,0.8302,0.82,0.8201,0.8202,0,0.8117,0.8125,0.8169,0.8167,0.8173,0.8192,0.8202,0.8216,0.8218,0.8213,0.8219,0.8203,0.8227,0.8196,0.8228,0.8203,0.8211,0.8209,0.8211,0.8213,0.8179,0.8233,0.832,0.8329,0.8214,0.8213,0.8212,0,0.8179,0.8202,0.823,0.8234,0.8232,0.8246,0.8246,0.8246,0.8254,0.8263,0.8268,0.8279,0.8285,0.8294,0.8281,0.826,0.8315,0.8283,0.8312,0.8312,0.8326,0.8325,0.8416,0.8329,0.8329,0.8329,0.8329,0,0.825,0.8278,0.8258,0.8277,0.8307,0.8289,0.832,0.8316,0.8317,0.8334,0.8312,0.8328,0.831,0.8324,0.8314,0.8342,0.8345,0.8342,0.8339,0.8344,0.8345,0.835,0.8346,0.8331,0.8331,0.833,0.833,0,0.8325,0.8313,0.8343,0.8338,0.8338,0.8361,0.8356,0.8373,0.8365,0.8387,0.8391,0.838,0.8396,0.8384,0.8399,0.8393,0.843,0.8421,0.8429,0.8427,0.8457,0.8454,0.8554,0.8567,0.8472,0.8473,0.8473,0,0.8371,0.8392,0.8389,0.8399,0.84,0.8416,0.8423,0.8406,0.8415,0.842,0.8436,0.8449,0.846,0.8486,0.848,0.8491,0.8483,0.8517,0.8485,0.8489,0.8484,0.8483,0.8485,0.8524,0.8525,0.8526,0.8527,0,0.8455,0.8448,0.846,0.847,0.848,0.8487,0.8492,0.8501,0.8484,0.8495,0.8511,0.8519,0.8534,0.8549,0.8558,0.8558,0.854,0.8537,0.8544,0.8551,0.8554,0.8553,0.8448,0.8535,0.8534,0.8534,0.8533,0.8533,0.8517,0.8534,0.8535,0.8549,0.8551,0.8556,0.8571,0.8566,0.8578,0.859,0.8579,0.8598,0.8599,0.861,0.8612,0.8626,0.8612,0.8623,0.8626,0.8629,0.8633,0.8551,0.8628,0.8628,0.8627,0.8627,0.8627,0,0.86,0.8599,0.8612,0.8619,0.863,0.8612,0.8616,0.8627,0.8644,0.8647,0.8657,0.8675,0.8688,0.8682,0.8694,0.8707,0.8699,0.8711,0.871,0.871,0.8645,0.8638,0.8717,0.8717,0.8717,0.8717,0.8717,0.8717,0.8644,0.8672,0.8665,0.8693,0.8692,0.871,0.8714,0.8719,0.8721,0.8742,0.8753,0.8749,0.8748,0.8759,0.8771,0.8768,0.8774,0.8789,0.8784,0.8723,0.8715,0.8706,0.8699,0.879,0.879,0.8848,0.8848,0.8849]}]]